Location: Cotdoussan
(43.0366°N, 0.0068°E)
Time: 23:00:41
(UTC+00:00)

ATLAS 2AS CENTAUR R/B - Visible Passes

Search period start: 18 November 2025 00:00
Search period end: 28 November 2025 00:00
Orbit: 1046 x 1164 km, 63.7° (Epoch: 18 November)

Date Brightness Start Highest point End Pass type
(mag) Time Alt. Az. Time Alt. Az. Time Alt. Az.
18 Nov 4.0 17:34:28 10° NNW 17:39:13 19° NNE 17:42:14 15° ENE visible
18 Nov 3.2 19:24:50 10° NNW 19:29:41 45° N 19:29:41 45° N visible
18 Nov 5.2 21:16:24 10° NW 21:17:07 13° WNW 21:17:07 13° WNW visible
19 Nov 3.0 18:39:55 10° NNW 18:46:17 42° NE 18:46:26 42° NE visible
19 Nov 4.4 20:30:52 10° NW 20:33:52 26° WNW 20:33:52 26° WNW visible
20 Nov 3.5 17:55:01 10° NNW 18:00:53 30° NE 18:03:17 24° ENE visible
20 Nov 3.2 19:45:37 10° NW 19:50:44 53° WNW 19:50:44 53° WNW visible
21 Nov 3.8 17:10:08 10° NNW 17:15:19 22° NNE 17:20:17 11° E visible
21 Nov 2.4 19:00:33 10° NNW 19:07:20 76° NE 19:07:44 73° E visible
21 Nov 4.9 20:52:37 10° WNW 20:55:12 18° W 20:55:12 18° W visible
22 Nov 2.8 18:15:34 10° NNW 18:22:10 51° NE 18:24:57 33° ESE visible
22 Nov 3.9 20:06:50 10° NW 20:12:26 35° WSW 20:12:26 35° WSW visible
23 Nov 3.2 17:30:40 10° NNW 17:36:50 36° NE 17:42:25 12° ESE visible
23 Nov 3.1 19:21:26 10° NW 19:28:00 56° WSW 19:29:56 42° S visible
24 Nov 2.6 18:36:17 10° NW 18:43:03 86° WSW 18:47:52 21° SSE visible
24 Nov 5.0 20:29:10 10° WNW 20:32:57 16° WSW 20:35:25 13° SW visible
25 Nov 2.6 17:51:15 10° NNW 17:57:59 64° NE 18:04:40 10° SE visible
25 Nov 4.4 19:42:54 10° WNW 19:48:21 27° WSW 19:53:47 10° SSW visible
26 Nov 3.0 17:06:19 10° NNW 17:12:45 43° NE 17:19:07 10° ESE visible
26 Nov 3.7 18:57:19 10° NW 19:03:37 43° WSW 19:09:54 10° S visible
27 Nov 2.9 18:12:03 10° NW 18:18:45 68° WSW 18:25:26 10° SSE visible
27 Nov 5.4 20:06:36 10° W 20:08:23 11° WSW 20:10:10 10° WSW visible
